Terug naar catalogus

STARLINK-36513

ActiefCommunicatieVLEO
NORAD 67429·PAYLOAD·🇺🇸 United States

Gelanceerd Jan 12, 2026 vanaf Cape Canaveral Space Force Station

Loading…

Volgende Passages (komende 24 uur)

TLE

VersSource: CelesTrak SupGP

Epoch: Sep 15, 2026, 03:11 UTC

1 67429C 26005AB  26258.13312500 -.00020429  00000+0 -74008-3 0  2587
2 67429  43.0015 247.9648 0001198 265.3585 358.6004 15.27582196    19

Volg STARLINK-36513 in realtime met AllMySat

Download on the App Store